Temp
-9 -9 -9 -9 -9 -9 -9 -9 -9 -9 -10 -9 -9 -9 -9 -10 -10 -10 -10 -10 -10 -10 -10 -10 -11 -11 -11 -11 -12 -11 -11 -11 -11 -11 -12 -12 -12 -12 -12 -12 -12 -12 -12
-9 -9 -9 -9 -10 -9 -10 -10 -10 -10 -10 -10 -10 -10 -10 -10 -10 -10 -10 -10 -11 -11 -11 -11 -12 -12 -12 -12 -11 -11 -12 -11 -11 -12 -12 -13 -13 -13 -13 -13 -13 -13 -13
-9 -10 -10 -10 -10 -10 -10 -10 -10 -10 -10 -10 -11 -11 -11 -11 -11 -11 -11 -12 -12 -12 -12 -12 -12 -12 -12 -12 -12 -12 -12 -12 -12 -12 -12 -13 -13 -13 -13 -13 -13 -13 -13
-10 -10 -10 -11 -11 -11 -11 -11 -11 -11 -11 -11 -11 -11 -11 -12 -12 -12 -12 -12 -12 -12 -12 -12 -12 -12 -12 -12 -12 -12 -12 -12 -12 -13 -13 -13 -13 -13 -13 -13 -13 -13 -14
-10 -11 -11 -11 -11 -11 -11 -11 -11 -11 -12 -12 -12 -11 -11 -12 -12 -12 -12 -12 -12 -12 -12 -11 -12 -12 -12 -12 -12 -12 -12 -12 -12 -13 -13 -13 -13 -13 -13 -13 -13 -13 -13
-11 -11 -11 -11 -11 -12 -12 -12 -12 -12 -12 -12 -12 -13 -13 -14 -13 -12 -12 -12 -12 -12 -12 -12 -12 -12 -12 -12 -12 -12 -12 -12 -12 -13 -13 -12 -12 -12 -12 -12 -12 -13 -13
-11 -11 -11 -12 -12 -12 -12 -12 -12 -12 -12 -12 -12 -13 -15 -15 -13 -12 -12 -12 -12 -12 -12 -12 -12 -12 -12 -12 -12 -12 -12 -12 -12 -13 -13 -12 -12 -12 -12 -12 -12 -13 -13
-12 -12 -12 -12 -12 -12 -12 -12 -13 -12 -12 -12 -12 -12 -13 -13 -13 -13 -13 -13 -13 -12 -12 -12 -12 -12 -12 -12 -12 -12 -12 -12 -12 -13 -13 -12 -12 -12 -12 -12 -13 -13 -14
-12 -12 -12 -12 -12 -12 -12 -13 -13 -13 -12 -12 -12 -12 -13 -13 -13 -13 -13 -13 -13 -12 -12 -12 -12 -12 -12 -12 -12 -12 -12 -12 -12 -12 -13 -13 -12 -12 -12 -12 -12 -13 -14
-12 -12 -13 -12 -12 -12 -13 -13 -13 -13 -13 -13 -13 -13 -13 -14 -13 -13 -13 -13 -13 -13 -13 -13 -12 -12 -12 -12 -12 -12 -12 -12 -12 -12 -12 -12 -12 -12 -12 -13 -13 -13 -14
-13 -13 -13 -13 -13 -13 -13 -13 -13 -13 -13 -13 -13 -13 -13 -13 -14 -13 -13 -13 -13 -13 -12 -13 -13 -12 -12 -12 -12 -12 -12 -12 -13 -13 -13 -13 -12 -12 -12 -12 -13 -13 -14
-14 -14 -14 -13 -13 -13 -14 -14 -14 -13 -14 -13 -13 -14 -14 -14 -14 -14 -13 -13 -13 -12 -12 -13 -13 -12 -12 -13 -13 -13 -13 -13 -13 -13 -13 -13 -13 -12 -13 -13 -13 -13 -14
-16 -15 -15 -14 -14 -14 -14 -14 -14 -14 -14 -14 -13 -13 -14 -14 -14 -14 -14 -13 -13 -13 -13 -12 -12 -13 -13 -13 -13 -13 -13 -13 -13 -13 -13 -13 -13 -13 -13 -13 -13 -13 -14
-16 -16 -15 -14 -14 -14 -14 -14 -14 -14 -14 -14 -14 -13 -14 -14 -14 -14 -13 -13 -13 -13 -13 -13 -13 -12 -13 -13 -13 -13 -13 -13 -13 -13 -13 -13 -13 -13 -13 -13 -13 -13 -13
-16 -16 -16 -15 -15 -15 -14 -14 -14 -14 -14 -14 -14 -14 -14 -14 -14 -14 -13 -13 -13 -13 -13 -13 -13 -13 -13 -13 -13 -13 -13 -13 -13 -13 -13 -13 -13 -13 -13 -13 -13 -13 -13
-15 -15 -16 -16 -15 -15 -14 -14 -14 -14 -14 -14 -14 -14 -14 -14 -14 -14 -13 -13 -13 -13 -13 -13 -13 -13 -12 -12 -12 -12 -12 -12 -12 -12 -12 -12 -12 -13 -13 -13 -13 -13 -13
-14 -14 -15 -15 -15 -14 -14 -14 -14 -14 -14 -14 -14 -14 -14 -14 -14 -14 -13 -13 -13 -13 -13 -13 -13 -13 -12 -12 -12 -12 -12 -12 -12 -12 -12 -12 -12 -12 -12 -12 -13 -13 -13
-14 -14 -14 -14 -14 -14 -14 -14 -14 -14 -14 -14 -14 -14 -14 -13 -13 -13 -13 -13 -13 -13 -13 -13 -13 -13 -12 -12 -12 -12 -12 -12 -12 -12 -12 -12 -12 -12 -12 -12 -12 -12 -12
-14 -14 -14 -14 -14 -14 -14 -14 -14 -14 -14 -14 -14 -14 -13 -13 -13 -13 -13 -13 -12 -12 -13 -13 -13 -13 -13 -12 -12 -12 -12 -12 -12 -12 -12 -12 -12 -12 -12 -12 -12 -12 -12
-13 -14 -14 -14 -14 -14 -14 -14 -14 -14 -14 -14 -14 -14 -13 -13 -13 -13 -13 -13 -13 -13 -13 -13 -13 -13 -12 -12 -12 -12 -12 -12 -12 -12 -12 -13 -13 -13 -12 -12 -12 -12 -12
-14 -14 -14 -14 -14 -14 -14 -14 -14 -14 -14 -14 -14 -14 -14 -14 -13 -13 -13 -13 -13 -13 -13 -13 -13 -13 -13 -13 -13 -13 -13 -13 -13 -13 -13 -12 -12 -13 -13 -13 -13 -13 -13
-14 -14 -14 -15 -15 -15 -15 -15 -15 -15 -15 -15 -15 -14 -14 -15 -14 -14 -14 -14 -14 -14 -14 -14 -14 -14 -14 -14 -14 -13 -13 -13 -13 -13 -13 -12 -12 -12 -12 -13 -13 -13 -13
-15 -15 -15 -15 -15 -15 -16 -15 -15 -15 -16 -15 -15 -15 -15 -15 -15 -15 -15 -15 -15 -14 -14 -14 -14 -14 -14 -14 -14 -14 -14 -14 -14 -14 -13 -13 -13 -13 -13 -13 -14 -14 -14
-16 -16 -16 -16 -16 -16 -16 -16 -16 -16 -16 -16 -16 -16 -16 -15 -15 -15 -15 -15 -15 -15 -15 -15 -15 -15 -15 -15 -15 -15 -15 -15 -15 -15 -15 -14 -14 -14 -14 -14 -15 -15 -15
-17 -17 -17 -17 -17 -17 -17 -17 -17 -17 -17 -17 -17 -16 -16 -16 -16 -16 -16 -16 -16 -16 -16 -16 -16 -16 -16 -16 -16 -16 -16 -15 -15 -15 -15 -15 -15 -15 -15 -15 -15 -16 -16
-18 -18 -18 -18 -18 -18 -18 -18 -18 -18 -18 -17 -17 -17 -17 -17 -17 -17 -17 -17 -17 -17 -16 -17 -17 -17 -17 -17 -16 -16 -16 -16 -16 -16 -16 -16 -16 -16 -16 -16 -17 -17 -17
Height
5837 5833 5830 5827 5824 5821 5817 5813 5810 5806 5803 5799 5795 5791 5787 5784 5780 5778 5776 5774 5771 5769 5767 5764 5762 5761 5760 5759 5759 5757 5756 5754 5751 5749 5747 5747 5747 5747 5748 5749 5749 5750 5751
5831 5828 5824 5821 5817 5814 5809 5805 5802 5798 5794 5790 5785 5781 5777 5773 5770 5768 5765 5764 5761 5759 5757 5756 5754 5754 5753 5753 5752 5750 5748 5746 5743 5741 5739 5737 5737 5737 5737 5738 5738 5738 5739
5825 5821 5818 5814 5810 5806 5802 5797 5793 5789 5785 5780 5775 5771 5767 5763 5760 5758 5755 5754 5753 5751 5750 5749 5748 5747 5747 5746 5744 5743 5741 5739 5737 5735 5733 5732 5730 5728 5727 5727 5727 5727 5727
5818 5814 5810 5806 5802 5798 5793 5789 5784 5779 5775 5770 5765 5761 5756 5753 5751 5749 5747 5746 5745 5744 5743 5743 5742 5741 5740 5739 5737 5736 5734 5733 5731 5729 5728 5725 5722 5720 5719 5718 5718 5717 5717
5810 5806 5802 5797 5793 5789 5784 5780 5775 5771 5765 5761 5756 5750 5744 5741 5740 5740 5739 5738 5737 5736 5736 5735 5735 5734 5733 5732 5731 5730 5729 5728 5726 5723 5721 5717 5713 5711 5710 5709 5707 5706 5704
5802 5797 5793 5789 5784 5780 5775 5771 5766 5762 5758 5753 5746 5736 5726 5724 5730 5732 5732 5731 5730 5729 5729 5729 5729 5729 5728 5728 5727 5725 5724 5722 5720 5717 5714 5710 5706 5704 5701 5698 5695 5693 5691
5793 5789 5784 5780 5775 5771 5767 5763 5758 5754 5751 5745 5738 5728 5719 5717 5721 5724 5725 5725 5724 5723 5724 5725 5725 5725 5724 5724 5722 5720 5718 5716 5714 5711 5708 5704 5701 5696 5692 5686 5681 5677 5674
5784 5780 5776 5772 5768 5764 5760 5755 5751 5747 5744 5739 5732 5725 5720 5719 5718 5719 5720 5720 5720 5720 5721 5721 5721 5721 5720 5719 5717 5715 5713 5711 5709 5706 5702 5699 5694 5689 5683 5680 5673 5663 5656
5776 5771 5767 5764 5760 5756 5752 5748 5745 5741 5737 5734 5728 5723 5719 5718 5717 5717 5717 5718 5717 5717 5717 5717 5717 5716 5715 5713 5712 5710 5709 5707 5704 5700 5697 5694 5690 5684 5679 5673 5665 5651 5644
5765 5761 5757 5755 5752 5749 5745 5742 5739 5735 5732 5729 5725 5721 5718 5717 5716 5716 5716 5715 5715 5714 5714 5714 5713 5711 5710 5709 5708 5706 5705 5703 5700 5696 5693 5690 5685 5680 5674 5668 5662 5651 5642
5754 5751 5747 5745 5744 5741 5738 5735 5733 5730 5727 5724 5722 5719 5716 5715 5714 5712 5712 5713 5712 5711 5711 5710 5708 5707 5707 5706 5705 5703 5701 5699 5696 5692 5690 5687 5682 5677 5671 5665 5660 5653 5644
5739 5738 5736 5735 5734 5732 5730 5729 5726 5724 5722 5719 5717 5715 5713 5712 5711 5709 5708 5708 5708 5708 5707 5706 5704 5703 5702 5702 5701 5699 5698 5696 5693 5690 5686 5683 5679 5674 5669 5663 5659 5653 5648
5728 5727 5727 5726 5725 5724 5722 5721 5719 5718 5716 5714 5711 5710 5708 5707 5706 5706 5705 5704 5703 5703 5703 5702 5701 5699 5698 5697 5696 5695 5693 5692 5690 5686 5683 5680 5677 5672 5668 5663 5658 5654 5650
5721 5719 5718 5718 5716 5715 5715 5714 5713 5712 5710 5708 5706 5704 5702 5702 5701 5700 5699 5699 5698 5697 5697 5697 5695 5695 5694 5693 5692 5691 5689 5688 5686 5683 5680 5677 5674 5670 5666 5662 5658 5654 5651
5718 5714 5712 5710 5709 5708 5708 5707 5706 5705 5704 5701 5700 5698 5697 5695 5694 5693 5693 5692 5692 5691 5689 5688 5689 5688 5687 5686 5686 5685 5684 5682 5681 5679 5676 5673 5671 5669 5665 5662 5659 5655 5653
5713 5710 5707 5705 5703 5702 5701 5701 5699 5698 5697 5695 5693 5692 5690 5688 5686 5685 5685 5685 5685 5685 5685 5681 5680 5680 5679 5679 5677 5677 5676 5675 5673 5672 5670 5668 5666 5663 5661 5659 5657 5655 5653
5707 5705 5702 5699 5697 5696 5694 5694 5692 5691 5690 5688 5686 5684 5682 5681 5679 5677 5677 5677 5676 5676 5677 5674 5673 5672 5670 5671 5670 5668 5667 5667 5665 5663 5661 5660 5658 5658 5655 5653 5652 5651 5650
5699 5696 5694 5691 5689 5687 5686 5684 5683 5682 5682 5680 5677 5676 5674 5671 5670 5668 5668 5668 5667 5667 5667 5665 5663 5662 5660 5660 5659 5659 5658 5656 5656 5653 5652 5651 5650 5649 5648 5648 5647 5645 5643
5690 5688 5685 5682 5680 5677 5675 5674 5673 5673 5671 5670 5667 5666 5664 5662 5660 5659 5659 5658 5657 5656 5655 5655 5652 5651 5650 5648 5648 5648 5647 5647 5645 5644 5643 5642 5641 5640 5639 5637 5637 5637 5635
5678 5677 5675 5673 5670 5667 5665 5663 5662 5661 5660 5658 5656 5654 5653 5651 5650 5649 5648 5647 5646 5646 5644 5644 5643 5641 5639 5637 5636 5636 5635 5634 5633 5632 5630 5629 5628 5628 5627 5626 5625 5624 5624
5666 5664 5661 5660 5658 5656 5653 5651 5650 5649 5647 5646 5644 5643 5642 5640 5639 5638 5637 5635 5634 5634 5632 5631 5631 5629 5627 5626 5625 5623 5622 5621 5620 5618 5618 5616 5615 5614 5612 5612 5611 5610 5610
5655 5652 5649 5647 5645 5643 5641 5639 5637 5636 5635 5634 5632 5631 5630 5629 5628 5627 5625 5624 5624 5623 5620 5620 5619 5617 5616 5615 5614 5612 5610 5609 5608 5606 5604 5604 5601 5600 5598 5596 5595 5594 5594
5642 5639 5636 5634 5632 5630 5628 5626 5625 5623 5622 5620 5619 5618 5617 5616 5615 5614 5613 5612 5611 5609 5608 5607 5606 5604 5604 5602 5600 5598 5596 5594 5592 5591 5589 5588 5585 5584 5582 5580 5578 5577 5576
5627 5627 5624 5621 5618 5616 5614 5612 5610 5609 5608 5607 5605 5604 5603 5601 5600 5600 5599 5598 5596 5595 5594 5592 5591 5590 5588 5585 5584 5581 5579 5577 5575 5573 5571 5571 5568 5565 5564 5562 5561 5559 5558
5608 5606 5606 5605 5603 5599 5598 5596 5595 5592 5591 5590 5590 5588 5587 5585 5584 5583 5583 5581 5580 5577 5577 5576 5574 5572 5570 5568 5566 5564 5561 5560 5557 5556 5552 5551 5547 5545 5544 5543 5541 5540 5539
5588 5587 5585 5585 5584 5583 5580 5578 5578 5576 5574 5573 5571 5571 5570 5569 5567 5567 5566 5565 5564 5562 5562 5561 5558 5555 5554 5552 5548 5545 5543 5542 5539 5536 5533 5530 5527 5524 5525 5521 5519 5517 5517
Wind_Speed
33 34 34 34 35 36 37 39 41 44 46 47 48 48 48 47 46 46 46 45 46 47 46 44 41 38 37 34 30 28 29 30 35 41 47 51 50 48 47 46 47 47 47
35 35 36 37 38 40 42 44 46 48 49 48 48 47 46 46 45 44 44 44 41 41 38 34 30 30 30 29 30 33 34 34 30 28 30 35 42 44 44 44 45 45 45
38 39 40 41 43 44 46 49 50 51 51 50 49 48 47 45 43 40 38 36 33 28 25 26 27 27 28 31 32 32 32 32 29 28 29 31 33 35 38 41 43 42 42
42 43 43 45 46 47 48 48 48 50 49 48 48 47 47 44 40 38 34 30 29 28 30 29 27 29 31 32 30 28 24 22 24 25 29 34 36 37 40 41 44 46 47
45 46 47 48 48 49 49 49 48 46 43 41 45 50 53 50 41 35 29 31 32 31 27 26 28 28 23 19 18 20 21 22 26 26 27 30 32 31 34 37 39 41 43
48 48 50 50 49 48 45 44 43 41 37 40 45 48 45 41 34 29 29 30 27 26 25 23 16 16 17 18 19 21 23 25 26 25 29 29 27 31 39 43 45 48 49
50 51 50 48 43 41 41 40 38 38 36 41 40 37 27 22 22 24 26 23 22 20 18 14 16 16 17 20 22 24 24 24 24 26 27 26 26 30 31 34 41 48 54
53 50 47 43 41 40 40 37 35 36 35 39 36 32 21 17 17 18 17 17 16 13 14 16 16 18 21 23 23 22 22 21 22 24 24 24 25 30 28 31 37 45 50
52 48 45 42 40 38 38 35 34 34 32 34 32 27 22 16 13 12 11 11 13 14 15 16 18 20 23 21 19 18 18 18 19 21 21 21 23 26 24 29 35 37 26
50 48 45 42 41 39 37 34 33 32 31 30 27 23 17 14 11 12 12 13 13 14 14 17 20 22 19 18 17 17 16 17 17 18 18 17 18 22 23 25 30 32 25
54 50 48 43 41 38 36 32 32 32 30 27 25 21 19 19 18 17 14 12 12 14 15 17 20 18 17 16 16 15 13 13 13 14 15 16 16 17 20 27 28 28 22
54 51 47 41 38 37 34 32 31 31 30 27 25 24 22 21 20 19 19 17 14 13 15 16 17 17 16 15 13 11 7 7 9 12 16 17 17 17 18 21 26 29 24
43 40 40 38 37 35 33 32 30 30 30 26 24 25 27 25 23 21 20 20 20 20 20 18 18 19 19 17 15 13 13 11 12 14 16 18 19 19 18 19 20 20 23
37 34 34 36 35 33 31 31 31 30 30 28 26 24 26 31 29 26 24 23 23 24 24 22 22 21 23 23 22 22 22 20 19 19 21 22 22 22 20 19 20 21 20
36 34 34 34 34 30 30 30 30 30 29 28 28 28 27 27 31 32 29 27 26 27 29 29 26 27 26 26 27 27 26 26 25 26 27 27 28 26 25 24 19 17 17
33 30 31 32 30 30 31 31 30 31 30 30 29 30 30 31 29 31 34 32 30 29 31 34 33 31 31 30 30 30 31 31 32 32 33 33 32 31 29 27 23 20 16
34 33 30 30 31 33 35 35 34 33 33 33 33 33 34 34 32 31 32 35 35 35 34 38 36 37 36 34 34 34 34 34 36 37 38 37 36 34 34 34 31 28 24
39 35 36 35 35 37 37 37 36 36 35 36 36 36 37 37 35 35 34 36 37 38 38 40 40 39 40 40 40 39 40 40 39 41 40 41 40 40 38 37 36 36 36
43 43 41 39 40 40 39 38 38 38 39 39 40 40 40 40 39 39 38 38 39 41 42 41 43 43 43 44 43 43 43 43 45 46 47 47 46 45 45 44 43 39 38
51 47 44 44 43 43 43 43 43 42 43 44 44 43 43 43 42 42 42 43 44 43 44 44 43 44 45 46 46 46 46 47 48 48 49 50 49 49 49 49 49 48 47
52 49 47 46 46 46 46 47 45 44 44 44 44 44 44 44 43 44 42 42 43 42 42 43 42 42 43 44 43 43 44 46 46 47 48 49 49 50 51 51 52 52 51
53 53 49 45 44 44 45 45 45 43 44 43 43 43 42 43 44 42 42 41 40 40 41 41 40 40 40 42 45 47 48 49 49 51 52 51 52 53 53 54 54 53 54
52 52 53 53 50 48 47 47 46 46 45 44 45 44 44 44 45 46 46 45 44 45 46 46 47 49 51 54 54 54 55 55 56 55 55 56 57 58 59 60 59 59 59
57 59 59 57 56 56 54 54 52 52 52 51 49 48 48 50 51 51 51 52 54 53 54 56 58 59 58 58 58 58 58 59 60 61 61 61 63 63 64 63 63 63 63
64 63 66 66 63 62 62 62 62 61 60 58 59 58 56 56 56 58 59 58 55 56 59 58 58 59 60 60 60 61 62 63 64 65 68 70 71 71 70 67 66 64 63
71 70 70 71 69 70 69 68 66 62 63 62 60 58 58 57 57 57 57 57 56 58 58 57 58 60 60 61 64 65 67 67 69 71 71 73 72 71 69 65 63 62 61
Wind_Direction
312 310 307 306 302 300 298 296 294 293 294 293 292 291 290 289 288 288 288 287 286 286 285 285 285 285 285 285 288 292 295 298 289 280 275 273 270 268 266 265 264 264 263
308 306 304 301 299 297 296 294 294 296 297 295 292 289 287 286 286 287 287 287 287 287 288 285 281 283 284 285 287 288 292 293 295 296 290 282 274 269 268 268 267 265 264
303 302 301 299 296 295 295 295 296 298 297 296 293 291 290 288 287 287 287 288 288 285 282 282 281 283 284 284 284 286 287 288 293 293 291 287 281 276 272 269 266 265 264
301 302 300 300 299 298 298 298 298 298 300 299 298 295 292 288 286 286 287 285 282 279 282 281 279 281 285 285 284 284 286 287 291 294 296 292 285 279 275 272 270 269 267
300 301 302 301 300 300 300 300 302 304 305 304 302 296 288 280 279 282 280 284 282 281 279 273 279 285 284 282 281 285 289 291 294 293 304 307 295 286 278 278 276 274 272
300 301 300 299 300 301 303 304 304 307 305 311 313 315 300 274 270 274 278 284 282 277 272 276 275 279 281 282 288 290 290 290 290 299 303 299 308 290 283 281 278 274 273
298 299 299 300 302 303 303 304 306 307 304 310 316 321 312 284 264 271 282 282 276 270 267 263 271 279 284 289 290 290 292 292 293 295 302 305 312 311 305 296 290 281 273
298 298 298 299 301 303 302 302 305 306 305 312 319 324 320 303 285 282 284 279 271 257 262 271 274 281 289 295 296 293 293 294 295 298 301 303 310 321 323 321 313 298 281
297 295 295 297 300 301 298 300 302 306 307 310 320 323 316 304 293 286 277 269 266 265 270 274 284 290 297 298 298 298 296 300 301 302 302 307 316 334 316 323 323 322 311
294 293 293 296 299 297 297 296 300 305 304 305 312 319 315 307 293 277 273 275 272 269 274 282 286 290 291 294 300 302 304 307 305 304 311 317 324 342 330 329 342 340 319
292 290 291 294 296 295 294 292 296 305 304 301 298 294 296 298 299 295 282 272 266 262 277 289 290 288 289 296 300 305 314 329 330 321 324 332 336 343 345 344 348 351 351
289 285 286 289 292 293 290 287 294 303 303 302 290 278 277 281 285 289 293 291 286 272 280 288 289 284 280 286 291 298 301 328 339 346 352 357 354 352 353 351 350 358 19
301 291 291 290 290 289 285 284 293 299 300 296 295 282 270 270 275 278 283 289 293 288 287 292 294 283 279 282 281 284 282 291 308 320 331 342 351 1 5 353 353 359 353
309 298 294 292 290 285 284 287 287 295 297 293 292 292 282 269 267 268 271 275 280 282 285 286 291 290 284 285 285 286 287 291 297 306 315 325 333 339 350 4 3 357 353
317 307 299 293 288 283 287 291 288 289 290 294 291 289 289 288 269 263 265 268 271 279 285 283 283 285 288 285 281 284 287 289 293 301 308 312 317 325 330 337 347 352 350
312 310 307 301 293 287 290 294 290 287 284 289 291 291 288 286 288 270 262 266 268 270 274 281 284 281 280 281 283 282 282 283 286 291 296 301 306 310 313 317 321 328 335
305 301 298 297 295 293 293 292 291 287 285 286 287 289 288 286 282 279 269 264 265 268 273 278 279 281 281 280 280 281 280 281 283 286 289 291 295 298 302 306 309 311 311
301 300 296 289 287 288 289 289 289 287 285 283 285 285 285 283 280 276 273 270 269 271 272 274 275 276 276 277 278 278 279 280 280 281 282 285 287 289 291 292 296 301 303
297 295 293 291 290 285 282 284 285 285 284 283 284 283 283 282 278 275 273 271 270 271 273 275 277 279 281 281 283 283 282 281 282 282 284 285 286 287 287 286 287 286 286
296 293 291 290 287 286 285 285 286 285 285 285 285 283 282 281 281 280 277 276 276 276 277 278 279 280 282 282 283 283 283 283 282 283 284 284 285 285 285 285 284 283 281
291 291 291 289 287 286 286 286 287 287 286 285 285 285 284 283 282 282 281 279 279 279 279 279 279 279 279 281 282 284 286 286 286 286 287 288 288 287 286 284 283 282 281
284 284 286 286 284 283 282 281 281 281 282 281 280 280 281 280 280 279 279 280 281 282 281 281 282 281 282 284 286 288 288 288 288 288 287 288 287 286 285 282 280 279 278
277 277 279 281 281 279 278 277 276 276 275 273 274 274 274 273 273 275 277 279 280 280 281 282 283 284 286 288 287 286 284 284 283 283 283 283 282 282 282 280 279 278 276
275 279 281 278 277 278 277 276 274 274 274 273 272 271 271 271 272 274 274 276 278 278 279 279 280 282 282 281 282 283 284 284 285 286 288 289 288 286 284 283 282 280 277
274 276 277 279 279 277 276 277 278 277 276 276 275 274 274 273 273 272 272 272 274 277 278 279 280 282 283 284 284 286 288 289 291 294 296 292 293 291 290 288 285 282 278
273 274 275 275 274 275 277 277 278 275 276 274 273 272 271 269 270 272 274 275 277 279 281 282 283 283 284 286 287 289 291 293 296 297 296 295 293 290 287 284 280 277 275